Probability
0 0 0 0 0 0 0 0 0 0 0 0 0 1 6 11 14 17 21 27 35 41 49 56 59 62 65 67 67 65 65 64 62 61 61 63 63 60 57 54 47 38 30 26
0 0 0 0 0 0 0 0 0 0 0 0 0 1 6 11 13 17 22 27 33 41 48 53 55 56 58 61 62 61 63 63 61 61 61 61 60 55 52 50 46 38 30 27
0 0 0 0 0 0 0 0 0 0 0 0 0 2 8 13 15 19 22 25 29 37 43 47 48 46 45 49 54 56 58 58 57 57 57 57 55 50 45 44 43 37 31 28
0 0 0 0 0 0 0 0 0 0 0 0 0 2 8 15 20 22 21 21 25 31 37 40 41 39 36 40 46 50 51 51 49 48 48 49 48 44 39 38 38 36 31 29
0 0 0 0 0 0 0 0 0 0 0 0 0 2 7 14 21 23 20 20 25 29 33 36 37 36 34 36 39 42 44 43 42 41 41 41 40 38 35 32 31 30 29 27
0 0 0 0 0 0 0 0 0 0 0 0 0 2 7 12 17 19 19 22 27 30 33 36 37 35 33 33 34 36 39 40 40 39 39 37 35 33 31 28 25 24 22 21
0 0 0 0 0 0 0 0 0 0 0 0 0 2 7 11 13 16 19 23 28 30 31 33 35 35 33 33 34 36 39 40 40 39 39 36 33 29 27 25 23 20 18 16
0 0 0 0 0 0 0 0 0 0 0 0 0 3 8 10 11 15 19 22 27 29 28 28 30 31 31 32 35 38 38 38 38 38 37 35 30 26 25 25 22 20 19 17
0 0 0 0 0 0 0 0 0 0 0 0 0 3 7 7 8 12 17 20 24 26 25 24 25 27 27 27 32 36 36 35 35 35 34 32 29 26 25 25 23 22 21 20
0 0 0 0 0 0 0 0 0 0 0 0 0 2 4 5 5 10 16 21 24 24 21 19 22 25 25 24 29 33 34 34 33 31 30 30 28 26 25 24 23 23 22 21
0 0 0 0 0 0 0 0 0 0 0 0 0 1 3 5 7 11 19 24 24 22 19 16 20 25 26 25 27 30 33 33 31 27 26 27 26 26 25 25 23 22 21 19
0 0 0 0 0 0 0 0 0 0 0 0 0 1 4 8 10 14 20 24 24 23 20 16 19 24 27 26 25 27 29 29 26 23 22 24 25 25 25 25 23 21 18 16
0 0 0 0 0 0 0 0 0 0 0 0 0 1 5 9 11 14 19 22 23 24 23 18 18 22 24 23 23 23 23 23 21 20 21 22 22 22 23 23 22 19 16 14
0 0 0 0 0 0 0 0 0 0 0 0 0 1 5 8 10 13 17 19 21 24 24 20 18 20 21 22 22 21 20 19 18 18 19 19 19 18 18 19 18 17 15 12
0 0 0 0 0 0 0 0 0 0 0 0 0 2 6 8 10 13 16 16 18 20 21 19 18 17 17 18 19 20 19 17 16 16 15 14 14 14 13 13 14 14 11 9
0 0 1 0 0 0 0 0 0 0 0 0 0 2 7 11 12 13 14 14 14 16 17 17 15 14 13 14 15 15 15 15 13 12 10 8 9 9 9 9 10 10 9 7
0 0 0 0 0 0 0 0 0 0 0 0 0 2 6 12 14 14 14 14 13 15 17 16 15 14 13 14 13 12 11 12 11 9 6 4 4 5 5 5 6 7 6 5
0 0 0 0 0 0 0 0 0 0 0 0 0 1 4 9 12 14 14 14 14 14 16 15 15 15 15 14 13 10 8 8 8 6 4 3 2 1 1 2 2 4 4 4
1 1 0 0 0 0 0 0 0 0 0 0 0 1 3 5 8 11 12 12 12 13 14 14 14 14 15 13 10 7 5 4 4 4 3 2 1 0 0 1 1 3 3 3
1 2 1 0 0 0 0 0 0 0 0 0 0 1 3 4 6 9 10 10 11 12 14 13 13 13 14 12 7 4 2 1 2 2 2 1 0 0 0 1 2 3 3 3
1 1 0 0 0 0 0 0 0 1 2 1 1 2 4 6 7 9 10 9 9 11 12 12 12 12 12 11 7 3 1 0 0 1 1 1 0 0 0 1 2 3 4 4
0 0 0 0 0 1 1 1 2 3 3 2 1 2 4 5 6 7 8 9 8 8 9 10 10 11 11 10 8 4 1 0 0 0 0 0 0 0 0 1 2 3 4 3
0 0 0 0 0 1 2 3 3 3 2 1 0 1 2 3 4 4 7 9 8 8 8 8 8 9 10 9 8 5 2 1 0 0 0 0 0 0 0 1 2 2 2 2
0 0 0 0 0 1 1 2 2 2 1 0 0 0 1 2 4 4 6 8 9 8 8 7 7 8 9 8 7 5 3 2 1 1 1 0 0 0 0 0 1 1 0 1
0 0 0 0 0 0 0 1 2 1 0 0 0 0 0 2 4 5 5 6 7 7 7 7 7 7 7 6 5 4 4 3 3 2 2 1 0 0 0 0 0 0 0 0
0 0 0 0 0 0 0 1 1 1 1 0 0 0 0 2 4 4 4 6 6 6 6 6 6 6 6 6 5 4 4 4 3 3 3 2 1 0 0 0 0 0 0 0
Wind_Speed
10 11 9 8 9 10 12 12 14 11 7 9 10 10 8 8 9 8 8 7 7 7 9 8 6 6 7 6 5 5 5 4 3 3 3 3 3 2 2 2 3 3 2 1
11 10 7 7 9 11 12 13 13 10 8 9 11 13 10 9 10 7 6 6 7 6 6 8 7 5 5 5 5 4 4 5 4 3 2 3 3 2 2 2 3 2 2 1
10 5 4 6 9 12 12 12 12 12 11 11 13 14 11 7 7 5 4 4 5 6 6 7 7 5 3 3 4 4 4 4 3 3 2 2 2 1 1 2 2 2 1 1
9 6 5 8 10 11 10 11 14 13 13 11 12 12 9 8 6 5 4 4 4 4 6 8 7 6 5 3 3 4 4 4 4 3 3 3 3 2 2 1 2 1 1 2
9 9 8 9 9 9 11 12 14 15 14 15 13 12 9 6 3 3 3 4 5 5 6 9 8 7 6 5 4 4 5 5 4 4 4 3 2 2 2 2 2 1 1 1
13 10 9 8 9 10 11 12 14 14 11 14 10 9 9 4 2 3 3 2 4 4 5 8 8 7 6 5 5 6 6 5 4 4 4 3 3 2 2 2 1 0 0 0
11 9 6 5 9 8 10 10 8 8 7 10 9 7 4 1 2 3 4 4 3 4 5 7 8 8 7 6 5 5 6 6 5 5 3 3 3 2 2 1 1 1 0 0
11 8 4 5 7 9 9 9 8 9 11 11 10 7 1 4 5 4 4 5 4 4 4 5 6 7 7 7 5 5 6 6 5 5 4 3 2 1 1 1 1 1 1 1
10 10 9 9 8 9 9 9 10 11 14 13 7 6 2 5 5 4 3 4 4 4 4 4 5 6 6 5 5 5 6 6 5 5 4 3 3 2 1 1 1 0 1 1
10 13 12 11 11 9 8 9 7 7 8 11 9 6 3 2 3 3 2 3 4 4 3 3 3 5 5 5 5 6 6 5 4 3 4 3 3 2 2 1 1 1 0 1
10 11 13 11 10 10 9 10 9 7 7 8 9 5 4 3 2 2 1 4 4 3 3 3 3 4 5 5 6 6 5 4 4 3 3 3 3 3 3 2 1 1 0 0
8 8 11 12 11 9 8 10 9 8 9 10 9 5 2 2 2 2 3 4 4 4 3 3 3 4 4 4 4 4 4 4 4 3 3 3 2 2 2 1 0 0 0 1
8 6 9 9 6 5 8 10 9 9 9 10 10 6 1 1 1 2 3 4 4 4 4 4 4 3 4 3 3 3 3 3 2 3 3 3 2 1 1 1 1 0 0 0
6 8 11 13 13 14 13 13 13 12 10 11 11 8 5 1 1 3 3 5 4 4 4 4 3 3 3 3 3 3 3 3 2 2 2 2 2 2 1 1 1 0 0 0
6 11 13 16 17 17 16 16 14 14 14 13 11 10 4 1 1 3 4 5 4 4 4 4 3 4 3 3 3 3 3 3 2 3 2 2 2 2 2 1 1 0 1 1
5 10 14 17 17 16 17 15 15 14 12 11 11 9 1 1 2 3 4 4 4 4 4 4 4 4 4 3 3 3 3 2 2 2 2 2 2 2 2 1 1 1 1 1
9 11 14 15 16 15 14 11 10 11 10 9 10 6 2 1 1 2 4 5 4 4 4 4 3 3 3 3 3 3 3 3 3 2 1 2 2 2 2 1 2 2 1 1
13 12 10 12 14 15 9 6 6 8 8 7 6 5 3 2 2 2 2 4 4 5 4 4 3 3 3 3 3 3 3 3 3 2 2 1 1 1 1 2 2 1 1 1
11 10 10 9 12 13 10 6 6 7 7 4 5 4 2 2 2 3 4 5 5 4 4 4 3 4 3 4 3 3 3 3 2 3 2 1 1 1 1 1 2 1 1 1
8 8 9 11 12 12 8 5 5 7 5 3 3 2 1 1 2 2 4 5 5 5 4 4 3 4 4 3 3 4 3 3 2 2 2 2 1 1 1 1 1 1 0 1
9 9 11 12 13 9 6 6 7 6 2 3 2 2 1 1 3 5 5 6 6 5 5 4 4 4 3 3 3 3 3 3 2 2 2 2 1 1 2 2 1 1 1 1
10 9 9 9 10 7 4 5 3 2 2 2 2 2 3 5 6 6 5 5 5 5 5 5 4 4 3 3 3 3 3 2 2 2 2 2 2 1 1 2 1 2 2 2
9 6 5 6 5 4 3 2 1 1 1 1 1 1 3 5 6 6 5 5 5 5 5 4 4 4 4 3 3 3 3 2 2 2 2 2 1 1 1 2 2 2 2 1
10 8 8 9 7 6 5 2 1 1 1 1 1 2 3 4 6 5 5 4 5 5 5 4 4 4 4 3 3 3 3 2 2 3 2 2 2 2 2 1 1 1 0 1
14 12 10 11 9 7 6 3 3 2 1 2 3 3 4 5 5 5 4 5 5 5 4 4 4 4 4 4 3 3 3 3 2 2 2 2 2 2 2 1 1 1 2 1
14 12 10 10 8 6 6 4 3 3 3 3 4 4 5 5 5 6 7 6 6 5 5 4 4 4 4 4 4 3 3 3 3 2 2 2 2 2 2 2 1 0 2 2
Wind_Direction
249 249 264 284 286 298 301 294 293 296 287 279 277 271 258 244 236 224 217 207 181 180 159 152 145 138 133 136 147 152 156 148 155 160 177 173 179 177 165 156 150 149 165 203
258 253 277 303 308 296 289 287 288 292 301 293 283 275 259 253 247 228 207 204 179 174 144 141 140 142 142 151 153 159 161 161 171 173 176 170 162 181 161 141 139 151 170 200
274 306 325 303 287 282 283 290 299 304 300 284 281 278 268 254 247 219 209 206 178 170 153 137 139 143 131 152 161 162 160 160 165 149 145 143 129 128 132 134 143 150 175 190
283 290 292 285 283 292 295 307 303 297 293 286 278 277 268 250 224 205 207 202 183 158 140 140 146 157 154 176 156 134 136 139 135 135 134 142 147 144 130 128 123 134 209 196
289 303 294 286 297 306 300 301 297 291 284 279 272 275 280 248 221 198 213 200 173 160 151 146 152 157 155 160 153 137 124 120 115 116 114 118 123 121 118 121 125 167 230 216
276 269 273 289 299 295 297 297 292 286 279 273 280 283 278 284 198 188 174 159 143 139 134 138 142 144 143 145 149 144 132 130 130 125 124 124 120 114 118 121 118 118 277 276
286 269 254 265 282 293 304 297 298 303 289 282 302 290 284 46 82 126 140 135 121 130 136 135 142 148 147 141 139 144 141 143 146 145 143 135 137 149 150 154 151 172 271 332
300 296 308 306 298 299 294 289 292 302 299 305 307 287 347 79 57 65 99 106 105 116 124 135 143 147 148 150 151 157 152 150 154 154 155 152 160 165 151 166 197 205 242 254
310 307 312 305 297 285 289 293 300 292 288 287 283 285 95 65 68 51 66 100 111 108 115 129 146 137 140 154 158 152 147 149 159 162 164 168 165 160 164 197 220 207 228 251
302 302 297 300 293 284 286 297 298 289 298 299 298 303 3 25 51 44 10 80 84 100 113 114 122 133 138 147 147 142 149 152 155 168 180 165 159 166 191 193 207 234 301 348
306 299 298 296 296 303 299 295 294 294 291 295 299 322 1 6 37 78 47 77 93 91 101 119 136 130 132 136 139 145 154 158 163 186 186 166 169 187 196 198 189 156 121 300
314 302 298 301 299 300 295 292 293 290 291 290 291 290 345 330 19 73 90 87 90 101 103 102 117 119 122 127 137 145 160 168 177 183 171 171 179 178 176 152 119 87 336 301
326 308 299 296 289 285 286 284 286 286 279 282 287 285 198 241 60 82 102 111 112 109 99 98 97 105 112 115 122 126 139 148 168 166 156 158 157 151 175 173 144 157 225 287
289 278 276 282 291 298 294 294 296 293 288 286 286 285 263 291 14 92 111 129 130 126 120 108 101 93 95 107 119 125 124 120 128 133 135 133 153 172 185 184 147 166 192 42
290 279 278 282 287 288 288 289 288 286 286 287 292 292 288 220 170 119 129 138 140 136 130 124 118 109 106 108 114 114 122 129 127 119 112 114 128 145 152 141 116 102 59 37
292 289 292 288 286 286 287 287 287 286 290 292 297 300 331 93 118 136 145 154 157 150 142 130 118 122 126 129 134 130 128 121 115 110 120 125 138 141 134 121 103 67 57 40
277 278 284 286 292 291 281 287 297 299 303 303 299 309 341 290 131 155 157 162 163 148 142 136 129 128 131 139 139 141 141 132 128 127 131 124 130 120 123 112 88 68 48 30
265 272 276 281 286 276 274 291 287 287 295 306 318 335 352 67 85 82 113 138 141 138 139 138 138 133 134 136 143 142 135 139 145 138 129 131 128 121 122 111 99 81 57 20
240 249 261 269 275 275 280 286 294 293 296 334 323 333 22 81 100 100 92 105 110 111 116 123 137 142 143 143 144 144 148 158 159 147 143 138 126 113 106 95 92 93 66 350
243 230 246 263 273 275 285 312 307 281 274 355 358 355 343 222 263 125 110 108 106 105 109 117 133 143 143 140 149 154 163 168 169 151 133 129 122 109 104 98 90 86 118 258
264 253 249 261 267 268 290 313 303 282 323 30 22 10 25 78 84 116 123 117 113 115 121 132 146 147 148 154 157 159 161 166 162 150 149 148 134 151 141 126 136 207 238 257
281 272 267 268 270 270 329 324 327 350 355 350 6 38 81 102 112 119 125 125 126 130 132 137 138 130 130 146 153 150 146 149 155 157 159 152 157 198 130 134 196 234 230 238
280 284 288 280 274 299 319 319 316 268 302 350 17 87 117 133 137 132 134 141 144 139 135 142 142 133 134 147 155 148 137 141 155 157 150 145 162 162 152 180 213 229 233 241
281 292 292 291 281 290 285 269 249 306 287 193 148 143 145 147 138 135 143 145 141 136 143 150 150 144 148 155 154 148 151 162 166 162 160 168 179 186 177 208 242 249 306 8
287 288 283 277 278 289 278 270 262 240 202 156 159 164 153 148 150 149 159 160 149 146 152 159 159 156 160 163 161 158 163 164 157 157 175 197 201 182 157 175 311 321 23 26
274 275 277 282 284 277 273 260 269 258 232 189 172 161 156 151 158 167 164 155 154 158 162 168 170 167 166 171 166 163 170 166 163 178 189 202 195 182 182 178 160 51 190 157